This demonstration page uses our WeatherBlox Daily Observations layout. Learn more.

Left ArrowRight Arrow

41.12389, -100.76542

Hourly Observations for July 3, 2016

Temp ( °F °C ) Dew Point ( °F °C ) Humidity (%) Winds ( mph kmh ) Pressure ( in mb ) Visibility ( mi km ) Precip ( " mm )
12:06 am 00:06 Cloudy 61 16 61 16 100 100 ESE 3 6 29.97 1015 10 16 0.00 0.00
12:53 am 00:53 Cloudy with Mist and Fog 61 16.1 60 15.6 97 97 NNE 3 6 29.98 1015 3 5 0.00 0.00
1:07 am 01:07 Cloudy with Mist and Fog 61 16.1 60 15.6 97 97 ENE 5 7 29.97 1015 3 4 0.00 0.00
1:53 am 01:53 Cloudy with Mist and Fog 61 16.1 60 15.6 97 97 NE 3 6 29.98 1015 2 3 0.00 0.00
2:21 am 02:21 Cloudy with Mist and Fog 61 16 61 16 100 100 ENE 3 6 29.94 1014 3 5 0.00 0.00
2:34 am 02:34 Cloudy with Mist and Fog 61 16 61 16 100 100 NE 5 7 29.94 1014 4 6 0.00 0.00
2:45 am 02:45 Cloudy with Mist and Fog 61 16.1 60 15.6 97 97 ENE 6 9 29.94 1014 3 5 0.00 0.00
2:53 am 02:53 Cloudy with Mist and Fog 61 16.1 60 15.6 97 97 ENE 5 7 29.96 1015 3 5 0.00 0.00
3:06 am 03:06 Cloudy with Mist and Fog 61 16.1 60 15.6 97 97 ENE 3 6 29.94 1014 3 4 0.00 0.00
3:34 am 03:34 Cloudy with Mist and Fog 61 16 61 16 100 100 Calm 29.94 1014 2 3 0.00 0.00
3:53 am 03:53 Cloudy with Mist and Fog 61 16.1 60 15.6 97 97 Calm 29.95 1014 3 4 0.00 0.00
3:57 am 03:57 Cloudy with Mist and Fog 61 16 61 16 100 100 NNE 3 6 29.94 1014 4 6 0.00 0.00
4:26 am 04:26 Cloudy 61 16.1 60 15.6 97 97 Calm 29.94 1014 10 16 0.00 0.00
4:53 am 04:53 Cloudy 61 16.1 60 15.6 97 97 NE 6 9 29.95 1014 8 13 0.00 0.00
5:53 am 05:53 Cloudy 61 16.1 60 15.6 97 97 Calm 29.96 1014 10 16 0.00 0.00
6:53 am 06:53 Cloudy 61 16.1 59 15 93 93 E 3 6 29.96 1014 10 16 0.00 0.00
7:11 am 07:11 Cloudy with Mist and Fog 61 16.1 60 15.6 97 97 NE 5 7 29.94 1014 6 10 0.00 0.00
7:28 am 07:28 Cloudy with Mist and Fog 61 16 61 16 100 100 NNE 3 6 29.94 1014 2 3 0.00 0.00
7:38 am 07:38 Cloudy with Mist and Fog 61 16 61 16 100 100 NE 3 6 29.94 1014 3 5 0.00 0.00
7:53 am 07:53 Cloudy 61 16.1 60 15.6 97 97 NE 3 6 29.97 1015 9 14 0.00 0.00
8:42 am 08:42 Cloudy 63 17 61 16 94 94 VRB 3 6 29.94 1014 10 16 0.00 0.00
8:53 am 08:53 Cloudy 62 16.7 60 15.6 93 93 ENE 3 6 29.98 1015 10 16 0.00 0.00
9:53 am 09:53 Cloudy 64 17.8 60 15.6 87 87 Calm 29.97 1015 10 16 0.00 0.00
10:23 am 10:23 Cloudy 64 17.8 60 15.6 87 87 Calm 29.91 1013 10 16 0.00 0.00
10:53 am 10:53 Cloudy 65 18.3 60 15.6 84 84 Calm 29.97 1015 10 16 0.00 0.00
11:14 am 11:14 Cloudy 66 19 61 16 83 83 Calm 29.91 1013 10 16 0.00 0.00
11:24 am 11:24 Cloudy 66 19 61 16 83 83 Calm 29.91 1013 10 16 0.00 0.00
11:33 am 11:33 Cloudy 67 19.4 61 16.1 81 81 SE 3 6 29.91 1013 10 16 0.00 0.00
11:53 am 11:53 Cloudy 67 19.4 61 16.1 81 81 S 3 6 29.96 1015 10 16 0.00 0.00
12:53 pm 12:53 Cloudy 68 20 60 15.6 76 76 ESE 3 6 29.96 1014 10 16 0.00 0.00
1:53 pm 13:53 Cloudy 69 20.6 61 16.1 76 76 S 5 7 29.96 1014 10 16 0.00 0.00
2:53 pm 14:53 Mostly Cloudy 72 22.2 61 16.1 68 68 W 3 6 29.93 1014 10 16 0.00 0.00
3:53 pm 15:53 Mostly Cloudy 73 22.8 62 16.7 69 69 SSE 3 6 29.92 1013 10 16 0.00 0.00
4:53 pm 16:53 Mostly Cloudy 75 23.9 64 17.8 69 69 ESE 8 13 29.90 1013 10 16 0.00 0.00
5:53 pm 17:53 Mostly Cloudy 74 23.3 65 18.3 74 74 SE 10 17 29.88 1012 10 16 0.00 0.00
6:53 pm 18:53 Sunny 73 22.8 65 18.3 76 76 ESE 8 13 29.87 1011 10 16 0.00 0.00
7:53 pm 19:53 Sunny 72 22.2 65 18.3 79 79 ESE 6 9 29.85 1011 10 16 0.00 0.00
8:53 pm 20:53 Sunny 69 20.6 65 18.3 87 87 ESE 9 15 29.87 1012 10 16 0.00 0.00
9:53 pm 21:53 Clear 65 18.3 64 17.8 97 97 SE 7 11 29.87 1012 10 16 0.00 0.00
10:53 pm 22:53 Clear 64 17.8 63 17.2 96 96 ESE 7 11 29.88 1012 9 14 0.00 0.00
11:53 pm 23:53 Clear with Mist and Fog 61 16.1 60 15.6 97 97 ESE 6 9 29.89 1012 3 5 0.00 0.00

Powered by AerisWeather